TITAN 3C TRANSTAGE DEB, 1646

Orbit data source: Space-Track

TITAN 3C TRANSTAGE DEB, 1646 is space debris in LEO originally from a launch on Fri, 15 Oct 1965 UTC launched from the Air Force Eastern Test Range (AFETR). Debris objects in space refer to the collection of defunct objects orbiting the Earth. Examples of debris include non-operational satellites, rocket bodies, and fragments generated from explosions, collisions, or faulty payload assembly.

Loading next visibility...
Identifier
1646, 1965-082H
Orbit
LEO
Country
Flag of USUS
Related business
Manufacturer
Unknown
Mission
Spacecraft
Bus & Motor
Unknown
Mass
Unknown
Launch date (UTC)
1965-10-15 (61 years ago)
Launch vehicle
Unknown
Launch site
Air Force Eastern Test Range (AFETR)
Object type
Payload
Rocket body
Debris
Shape & HBR
Unknown shape, 1.2 m
Radar Cross Section
Large (>1 m²)

Expand to show TLE details & history
Last TLE update: 9 hours ago

TLE from 9 hours ago
0 TITAN 3C TRANSTAGE DEB
1  1646U 65082H   26145.11260370  .00000724  00000-0  94554-4 0  9990
2  1646  32.3080 132.1707 0002582  43.1299 316.9556 14.77468599216768
Epoch: 2026-05-25T02:42Z
TLE epoch observation values (Epoch: 2026-05-25T02:42:08.959Z)
Latitude
Longitude
-151.0717°
Altitude
634.661 km
Speed
7.544 km/s
True Right ascension
08h 48m 40s
True Declination
0° 00' 00"
Sunlit
Object was in daylight at epoch
Visualization orbit readout
Latitude
Unknown
Longitude
Unknown
Altitude
Unknown
Speed
Unknown
Apparent Right ascension
Unknown
Apparent Declination
Unknown
Sunlit
N/A
Visualization observer readout
Local Sidereal Time
20:24:12
Azimuth
Unknown
Elevation
Unknown
Doppler factor
Unknown
Orbital elements
Apogee altitude
642.732 km
Perigee altitude
639.107 km
Semi-major axis
7,019.056 km
Eccentricity
0.00026
Inclination
32.308°
RAAN
132.1707°
Arg. of periapsis
43.1299°
True anomaly
316.9354°
Mean anomaly
316.9556°
Eccentric anomaly
316.9455°
Mean motion
3.69084 °/min
Orbital period
97.54 mins
BSTAR
0.000094554

Documentation

Showing up to 5 results
|